Regional Weather Roundup
Issued by NWS

Home | Current Version | Previous Version | Graphics & Text | Print | Product List | Glossary On
Versions: 1 2 3 4 5 6 7 8 9 10 11 12 13 14 15 16 17 18 19 20 21 22 23 24 25 26 27 28 29 30 31 32 33 34 35 36 37 38 39 40 41 42 43 44 45 46 47 48 49 50
000
ASUS43 KIND 300409
RWRIN

WEATHER ROUNDUP FOR INDIANA
NATIONAL WEATHER SERVICE INDIANAPOLIS IN
1200 AM EDT SAT APR 30 2016

NOTE: "FAIR" INDICATES FEW OR NO CLOUDS BELOW 12,000 FEET WITH NO
SIGNIFICANT WEATHER AND/OR OBSTRUCTIONS TO VISIBILITY.

* - STATION DOES NOT REPORT WEATHER SUCH AS PRECIPITATION OR FOG.

+ - STATION NOT QUALITY CONTROLLED BY THE NATIONAL WEATHER SERVICE.
    USE DATA WITH CAUTION...ESPECIALLY DEWPOINT AND RELATIVE
    HUMIDITY OBSERVATIONS.

INZ001>003-010>013-019-020-300500-
NORTHWEST INDIANA

CITY           SKY/WX    TMP DP  RH WIND       PRES   REMARKS
GARY /AIRPORT/ CLOUDY    45  45 100 NE6       30.13F
KNOX *+        CLOUDY    43  37  81 N7        30.12F
LA PORTE +     CLOUDY    45  45 100 CALM      30.12F
MICHIGAN CITY+ CLOUDY    43  43 100 CALM      30.12F
MONTICELLO +   CLEAR     48  43  84 NE5       30.08F
RENSSELAER +   CLEAR     45  43  93 NE8       30.10F FOG
VALPARAISO     CLOUDY    43  40  89 CALM      30.12F

$$

LMZ046-743>745-300500-
SOUTHERN LAKE MICHIGAN

STATION/POSITION TIME  TEMP    WIND        PRES    WAVE
                       AIR SEA DIR/SP/G            HT
                 (UTC) (F)     (DEG/KT/KT) (MB)    (FT)
BURNS HARBOR     0300   44      50/  9/ 12 1020.7F
MICHIGAN CITY    0300   44      20/  9/ 10   N/A

$$

INZ004-005-014>016-021>024-300500-
NORTH CENTRAL INDIANA

CITY           SKY/WX    TMP DP  RH WIND       PRES   REMARKS
GOSHEN         CLOUDY    49  45  86 NE5       30.12F
LOGANSPORT +   PTCLDY    48  45  87 NE3       30.10F
PERU/GRISSOM   PTCLDY    48  46  93 E7        30.08F
ROCHESTER +    CLOUDY    52  48  87 CALM      30.11F
SOUTH BEND     CLEAR     45  42  89 NE6       30.13S
WARSAW +       CLOUDY    48  45  87 E5        30.12S

$$

INZ006>009-017-018-025>027-300500-
NORTHEAST INDIANA

CITY           SKY/WX    TMP DP  RH WIND       PRES   REMARKS
ANGOLA *+      CLOUDY    48  36  61 E9        30.14S
AUBURN +       CLOUDY    48  41  76 E3        30.15S
FORT WAYNE     CLOUDY    48  43  82 E10       30.14R
HUNTINGTON +   CLOUDY   N/A N/A N/A E5        30.12S

$$

INZ028-029-035-036-043>045-051>053-300500-
WEST CENTRAL INDIANA

CITY           SKY/WX    TMP DP  RH WIND       PRES   REMARKS
CRAWFORDSVL +  CLOUDY    50  49  93 NE9       30.06F
GREENCASTLE +  MOCLDY    54  52  94 NE7       30.05F
LAFAYETTE      CLOUDY    49  45  86 NE10      30.07F
TERRE HAUTE    CLOUDY    58  49  72 E10       30.03F

$$

INZ030>032-037>040-046>048-054>057-064-065-300500-
CENTRAL INDIANA

CITY           SKY/WX    TMP DP  RH WIND       PRES   REMARKS
CP ATTERBURY + CLOUDY    59  50  72 E12       30.06F
FISHERS *+     CLOUDY    52  48  87 E6        30.08F
FRANKFORT +      N/A     51  41  67 E7        30.09F
GREENWOOD *+   CLOUDY    55  50  82 E8        30.07F
INDIANAPOLIS   CLOUDY    57  47  69 E16       30.05F
-EAGLE CREEK   CLOUDY    56  47  71 E12       30.06F
KOKOMO *+      MOCLDY    48  43  81 E7        30.08F
MARION +       CLOUDY    49  44  83 E8        30.10F
SHELBYVILLE    CLOUDY    56  48  74 E14       30.06F
ZIONSVILLE +   CLOUDY    52  47  84 E12G17    30.08F

$$

INZ033-034-041-042-049-050-058-059-300500-
EAST CENTRAL INDIANA

CITY           SKY/WX    TMP DP  RH WIND       PRES   REMARKS
MUNCIE         CLOUDY    51  46  83 E8        30.10F

$$

INZ060-061-067>069-081>083-085>088-300500-
SOUTHWEST INDIANA

CITY           SKY/WX    TMP DP  RH WIND       PRES   REMARKS
EVANSVILLE     CLOUDY    62  52  69 SE3       30.00S
HUNTINGBURG *+ CLOUDY    63  52  67 E7        30.00S
WASHINGTON +   CLOUDY    61  55  79 E7        29.98F

$$

INZ062-063-066-070>080-084-089>092-300500-
SOUTH CENTRAL AND SOUTHEAST INDIANA

CITY           SKY/WX    TMP DP  RH WIND       PRES   REMARKS
BEDFORD +      CLOUDY    61  55  82 NE7       30.00F
BLOOMINGTON    CLOUDY    60  48  64 E7        30.04F
MADISON *+     CLOUDY    61  46  59 E9        30.06F
NORTH VERNON + CLOUDY    61  55  82 CALM      30.05F
SEYMOUR +      CLOUDY    63  52  67 NE8       30.03F

$$





USA.gov is the U.S. government's official web portal to all federal, state and local government web resources and services.